STARLINK-34768, 65095

Orbit data source: Space-Track

STARLINK-34768, 65095 is a payload satellite owned by SpaceX/Seattle (US) in LEO that was launched on Mon, 04 Aug 2025 UTC via an FALCON 9 launch vehicle from the Air Force Eastern Test Range (AFETR). Payload-class satellites include a variety of spacecraft equipped with specific instruments for various scientific and technological missions. These include communications satellites like Starlink; space stations such as the ISS; scientific satellites like the Hubble; Earth observation satellites from companies like Planet Labs, Umbra, and HawkEye 360; GPS; miniature CubeSats for education and research; and military/defense satellites.

Loading next visibility...
Identifier
65095, 2025-167T
Orbit
LEO
Country
Flag of USUS
Related business
Manufacturer
SpaceX/Seattle
Mission
Operational Commercial Communications
Bus & Motor
STARLINK V2MO, Unknown motor
Mass
575 kg wet, ~530 kg dry
Launch date (UTC)
2025-08-04 (9 months ago)
Launch vehicle
FALCON 9
Launch site
Air Force Eastern Test Range (AFETR)
Object type
Payload
Rocket body
Debris
Shape & HBR
Box + 2 Pan, 17.7 m
Radar Cross Section
36.964 m², Large (>1 m²)

Expand to show TLE details & history
Last TLE update: 11 hours ago

TLE from 11 hours ago
0 STARLINK-34768
1 65095U 25167T   26127.27988604  .00015864  00000-0  37316-3 0  9995
2 65095  53.1600 113.5602 0001247  86.8648 273.2501 15.42166365 42469
Epoch: 2026-05-07T06:43Z
TLE epoch observation values (Epoch: 2026-05-07T06:43:02.153Z)
Latitude
-0.00001°
Longitude
147.67292°
Altitude
440.573 km
Speed
7.649 km/s
True Right ascension
07h 34m 14s
True Declination
0° 00' 00"
Sunlit
Object was in daylight at epoch
Visualization orbit readout
Latitude
Unknown
Longitude
Unknown
Altitude
Unknown
Speed
Unknown
Apparent Right ascension
Unknown
Apparent Declination
Unknown
Sunlit
N/A
Visualization observer readout
Local Sidereal Time
01:52:31
Azimuth
Unknown
Elevation
Unknown
Doppler factor
Unknown
Orbital elements
Apogee altitude
440.825 km
Perigee altitude
439.124 km
Semi-major axis
6,818.112 km
Eccentricity
0.00012
Inclination
53.16°
RAAN
113.5602°
Arg. of periapsis
86.8648°
True anomaly
273.23583°
Mean anomaly
273.2501°
Eccentric anomaly
273.24297°
Mean motion
3.8552 °/min
Orbital period
93.38 mins
BSTAR
0.00037316
Loading maneuver chart data...
Computing Atmospheric mass density...
Loading historical data...
Loading historical data...
Loading historical data...
Loading historical data...
Loading historical data...
Loading historical data...
Loading historical data...

Documentation

Showing up to 5 results
|